Regional Weather Roundup
Issued by NWS Midland/Odessa, TX

Home | Current Version | Previous Version | Text Only | Print | Product List | Glossary On
Versions: 1 2 3 4 5 6 7 8 9 10 11 12 13 14 15 16 17 18 19 20 21 22 23 24 25 26 27 28 29 30 31 32 33 34 35 36 37 38 39 40 41 42 43 44 45 46 47 48 49 50
000
ASUS44 KMAF 230110
RWRMAF
MIDLAND AREA WEATHER ROUNDUP
NATIONAL WEATHER SERVICE MIDLAND TX
800 PM CDT WED OCT 22 2014

...IN SOUTHWEST TEXAS AND SOUTHEAST NEW MEXICO...

CITY           SKY/WX    TMP DP  RH WIND       PRES   REMARKS
ALPINE         PTCLDY    63  58  83 S7        30.19R
ANDREWS        MOCLDY    65  61  86 SE5       30.11R
ARTESIA        NOT AVBL
BIG SPRING     MOCLDY    66  53  62 SE12      30.13S
CARLSBAD       CLEAR     66  60  81 S7        30.07R
DRYDEN           N/A     64  59  83 E9        30.10R
FORT STOCKTON  MOCLDY    65  59  81 SE16G24   30.09R
GUAD PASS      CLEAR     60  56  86 E16       30.20R
HOBBS          PTCLDY    64  63  94 SE7       30.12R
MARFA          MOCLDY    63  57  82 SE7       30.18R
MIDLAND AIRPK  MOCLDY    68  56  65 S12       30.11R
MIDLAND INTL   MOCLDY    68  54  60 SE16      30.10R
ODESSA         MOCLDY    68  52  56 SE14      30.11R
PECOS          MOCLDY    69  61  76 E8        30.06R
PRESIDIO       FAIR      74  60  61 E10       30.04R
SEMINOLE       MOCLDY    61  59  93 SE5       30.11S
SNYDER         PTCLDY    62  60  93 SE7       30.12S
WINK           PTCLDY    66  61  84 E7        30.07R
$$
...OTHER STATIONS IN TEXAS...

CITY           SKY/WX    TMP DP  RH WIND       PRES   REMARKS
ABILENE        CLOUDY    68  58  70 E3        30.11S
AMARILLO       PTCLDY    62  60  93 SE16      30.09R
AUSTIN         CLOUDY    73  60  63 E5        30.07R
BROWNSVILLE    PTCLDY    76  68  76 NE6       29.99R
CORPUS CHRISTI PTCLDY    74  65  73 E7        30.03R
DALLAS FTW     CLOUDY    74  56  53 E7        30.09R
DEL RIO        LGT RAIN  65  62  90 CALM      30.07S
EL PASO        PTCLDY    73  53  49 N7        30.08R
HOUSTON INT    PTCLDY    68  59  73 CALM      30.06R
LUBBOCK        PTCLDY    61  59  93 S10       30.11R FOG
SAN ANGELO     LGT RAIN  66  57  72 SW5       30.11R
SAN ANTONIO    MOCLDY    78  55  44 E3        30.06R
WACO           MOCLDY    72  58  61 E6        30.08S
WICHITA FALLS  NOT AVBL
$$
...OTHER LOCATIONS IN NEW MEXICO...

CITY           SKY/WX    TMP DP  RH WIND       PRES   REMARKS
ALAMAGORDO     NOT AVBL
ALBUQUERQUE    PTCLDY    70  38  31 CALM      30.14R
CANNON AFB     PTCLDY    66  51  59 S13       30.09R
CLOVIS         PTCLDY    63  48  59 SE9       30.11R
HOLLOMAN AFB   PTCLDY    68  53  60 SE5       30.09R
ROSWELL        CLEAR     66  58  75 S7        30.07R
RUIDOSO        PTCLDY    59  43  55 N5        30.24R
SANTA FE       CLEAR     56  39  53 N7        30.17R
TRUTH OR CONSE PTCLDY    68  48  48 S5        30.11S
TUCUMCARI      PTCLDY    66  56  70 S8        30.04S
$$



USA.gov is the U.S. government's official web portal to all federal, state and local government web resources and services.